Погода в Кротоне

Италия     39°04′52″N   17°07′22″E
темп.,
°C
ветер,
м/с
пор.,
м/с
влажн.,
%
обл.,
%
осадки,
мм/ч
давл.,
гПа
погр.,
м
12 апреля, пн
пн1223:00+12ююз598897 0.0 1023437
02:00+12ююз5988100 0.0 1022492
05:00+12ююз61090100 0.0 1021528
08:00+13ююз7108542 0.0 1021635
11:00+14ююз91177100 0.0 1022677
14:00+15ююз101275100 0.0 1021665
17:00+14ю81181100 0.0 1019525
20:00+13ююз5788100 0.1 1019307
13 апреля, вт
вт1323:00+12ююз599097 0.0 1020269
02:00+13ююз5886100 0.1 1019247
05:00+12ююз478383 0.9 1018171
08:00+13ююз598189 0.9 1017312
11:00+18юз811572 0.0 1017838
14:00+19юз911522 0.0 10161056
17:00+17зюз9114877 0.0 1015595
20:00+12з710610 0.0 1016290
14 апреля, ср
ср1423:00+10сз44590 0.0 1017105
02:00+9сз015740 0.0 101849
05:00+8с347288 0.0 101999
08:00+10ссв577399 0.0 1020530
11:00+13св546295 0.0 10201178
14:00+12св3463100 0.1 1020796
17:00+12ссз2359100 0.1 1020428
20:00+11з236680 0.1 102087
15 апреля, чт
чт1523:00+9ссз46675 0.0 1021200
02:00+7ссз346874 0.0 1021107
05:00+6с347194 0.0 102097
08:00+9с3465100 0.0 1020160
11:00+13всв32514 0.0 1020912
14:00+13вюв425552 0.0 10191015
17:00+12юв3257100 0.0 1018545
20:00+10юз2265100 0.0 1018114
16 апреля, пт
пт1623:00+9зсз227440 0.0 101981
02:00+8с337894 0.0 101873
05:00+9с346692 0.0 1018142
08:00+10ссв4769100 0.0 1018432
11:00+13ссв6656100 0.0 1018974
14:00+11ссв7869100 1.5 1016783
17:00+11с6866100 0.2 1014709
20:00+10с81269100 0.2 1013647